This demonstration page uses our WeatherBlox Daily Observations layout. Learn more.

Left ArrowRight Arrow

47.50024, -111.30081

Hourly Observations for July 9, 2020

Temp ( °F °C ) Dew Point ( °F °C ) Humidity (%) Winds ( mph kmh ) Pressure ( in mb ) Visibility ( mi km ) Precip ( " mm )
12:53 am 00:53 Clear 50 10 40 4.4 68 68 ESE 5 7 29.98 1015 10 16 0.00 0.00
1:53 am 01:53 Clear 50 10 40 4.4 68 68 NE 3 6 29.98 1015 10 16 0.00 0.00
2:53 am 02:53 Clear 48 8.9 39 3.9 71 71 NNE 3 6 29.97 1015 10 16 0.00 0.00
3:53 am 03:53 Clear 47 8.3 39 3.9 74 74 SSW 3 6 29.98 1015 10 16 0.00 0.00
4:53 am 04:53 Clear 44 6.7 39 3.9 83 83 SW 6 9 29.98 1015 10 16 0.00 0.00
5:53 am 05:53 Sunny 42 5.6 37 2.8 82 82 Calm 29.99 1016 10 16 0.00 0.00
6:53 am 06:53 Sunny 49 9.4 43 6.1 80 80 Calm 29.98 1015 10 16 0.00 0.00
7:53 am 07:53 Sunny 56 13.3 43 6.1 62 62 Calm 29.96 1015 10 16 0.00 0.00
8:53 am 08:53 Sunny 60 15.6 43 6.1 53 53 SE 3 6 29.97 1015 10 16 0.00 0.00
9:53 am 09:53 Sunny 65 18.3 42 5.6 43 43 ESE 7 11 29.96 1015 10 16 0.00 0.00
10:53 am 10:53 Sunny 67 19.4 42 5.6 41 41 SSE 8 13 29.95 1014 10 16 0.00 0.00
11:53 am 11:53 Sunny 70 21.1 41 5 35 35 VRB 6 9 29.94 1014 10 16 0.00 0.00
12:53 pm 12:53 Sunny 73 22.8 40 4.4 30 30 Calm 29.92 1013 10 16 0.00 0.00
1:53 pm 13:53 Sunny 76 24.4 41 5 29 29 VRB 3 6 29.89 1012 10 16 0.00 0.00
2:53 pm 14:53 Sunny 78 25.6 40 4.4 26 26 Calm 29.88 1012 10 16 0.00 0.00
3:53 pm 15:53 Sunny 79 26.1 41 5 26 26 S 9 15 29.87 1011 10 16 0.00 0.00
4:53 pm 16:53 Sunny 79 26.1 40 4.4 25 25 Calm 29.86 1011 10 16 0.00 0.00
5:53 pm 17:53 Sunny 80 26.7 42 5.6 26 26 SE 7 11 29.86 1011 10 16 0.00 0.00
6:53 pm 18:53 Sunny 79 26.1 47 8.3 32 32 SE 10 17 29.85 1011 10 16 0.00 0.00
7:53 pm 19:53 Sunny 77 25 49 9.4 37 37 SE 9 15 29.84 1011 10 16 0.00 0.00
8:53 pm 20:53 Sunny 72 22.2 50 10 46 46 SSE 10 17 29.85 1011 10 16 0.00 0.00
9:53 pm 21:53 Clear 66 18.9 47 8.3 50 50 S 5 7 29.85 1011 10 16 0.00 0.00
10:53 pm 22:53 Clear 62 16.7 46 7.8 56 56 SE 3 6 29.87 1012 10 16 0.00 0.00
11:53 pm 23:53 Clear 63 17.2 49 9.4 60 60 ESE 6 9 29.86 1011 10 16 0.00 0.00

Powered by AerisWeather